SRR609 OBBI-OMDB

Flight info

Callsign SRR609
Flight time 0h 52m
Altitude 25000
Route BHR N697 SODAK P559 VUTEB
Aircraft B77L/H-SDE1E2E3FGHIJ2J3J4J5M1RWXY/LB1D1

Departure

Time 2026-04-23 19:38
Airport Bahrain International Airport (OBBI)

Arrival

Time 2026-04-23 20:30
Airport Dubai International Airport (OMDB)
Time Latitude Longitude Altitude Speed Heading
2026-04-23 19:09 26.27348 50.62166 1 ft 0 kts 214°
2026-04-23 19:25 26.27368 50.62181 27 ft 2 kts 217°
2026-04-23 19:25 26.27386 50.62200 25 ft 1 kts 242°
2026-04-23 19:26 26.27388 50.62217 26 ft 1 kts 291°
2026-04-23 19:26 26.27385 50.62223 25 ft 1 kts 302°
2026-04-23 19:27 26.27383 50.62227 25 ft 0 kts 297°
2026-04-23 19:28 26.27384 50.62225 25 ft 2 kts 297°
2026-04-23 19:29 26.27403 50.62194 28 ft 7 kts 309°
2026-04-23 19:29 26.27486 50.62177 28 ft 7 kts 30°
2026-04-23 19:30 26.27517 50.62267 27 ft 7 kts 111°
2026-04-23 19:30 26.27490 50.62316 28 ft 9 kts 122°
2026-04-23 19:30 26.27379 50.62509 32 ft 16 kts 121°
2026-04-23 19:31 26.27320 50.62613 32 ft 16 kts 126°
2026-04-23 19:31 26.27257 50.62712 33 ft 16 kts 125°
2026-04-23 19:31 26.27174 50.62852 29 ft 28 kts 122°
2026-04-23 19:31 26.27074 50.63027 27 ft 23 kts 123°
2026-04-23 19:32 26.26986 50.63179 20 ft 23 kts 123°
2026-04-23 19:32 26.26898 50.63331 20 ft 23 kts 123°
2026-04-23 19:32 26.26809 50.63483 18 ft 23 kts 123°
2026-04-23 19:32 26.26720 50.63633 23 ft 23 kts 123°
2026-04-23 19:33 26.26635 50.63788 25 ft 23 kts 121°
2026-04-23 19:33 26.26545 50.63939 27 ft 23 kts 124°
2026-04-23 19:33 26.26372 50.64241 20 ft 23 kts 122°
2026-04-23 19:34 26.26283 50.64392 17 ft 23 kts 123°
2026-04-23 19:34 26.26194 50.64543 19 ft 23 kts 122°
2026-04-23 19:34 26.26041 50.64809 22 ft 10 kts 119°
2026-04-23 19:35 26.26028 50.64883 21 ft 7 kts 87°
2026-04-23 19:35 26.26031 50.64900 22 ft 2 kts 80°
2026-04-23 19:35 26.26033 50.64912 24 ft 1 kts 76°
2026-04-23 19:35 26.26040 50.64935 24 ft 5 kts 68°
2026-04-23 19:36 26.26057 50.64966 26 ft 5 kts 54°
2026-04-23 19:36 26.26087 50.64995 28 ft 8 kts 27°
2026-04-23 19:36 26.26136 50.64986 27 ft 8 kts 323°
2026-04-23 19:36 26.26159 50.64952 28 ft 0 kts 306°
2026-04-23 19:37 26.26196 50.64891 28 ft 29 kts 303°
2026-04-23 19:37 26.26451 50.64449 28 ft 105 kts 303°
2026-04-23 19:37 26.26965 50.63565 37 ft 162 kts 301°
2026-04-23 19:37 26.27586 50.62516 600 ft 167 kts 303°
2026-04-23 19:38 26.28219 50.61380 1196 ft 176 kts 304°
2026-04-23 19:38 26.28843 50.60121 1661 ft 198 kts 303°
2026-04-23 19:38 26.29507 50.58657 1886 ft 225 kts 305°
2026-04-23 19:38 26.30647 50.57396 2227 ft 238 kts 330°
2026-04-23 19:39 26.32231 50.56870 2849 ft 246 kts
2026-04-23 19:39 26.33874 50.57469 3629 ft 258 kts 32°
2026-04-23 19:39 26.35120 50.58963 4252 ft 274 kts 62°
2026-04-23 19:39 26.35677 50.61004 5031 ft 280 kts 83°
2026-04-23 19:40 26.35826 50.63205 5759 ft 288 kts 87°
2026-04-23 19:40 26.36313 50.65345 6313 ft 296 kts 57°
2026-04-23 19:40 26.37686 50.67030 7053 ft 295 kts 40°
2026-04-23 19:40 26.39243 50.68586 7766 ft 301 kts 40°
2026-04-23 19:41 26.40803 50.70161 8576 ft 304 kts 41°
2026-04-23 19:41 26.42369 50.71762 9306 ft 310 kts 41°
2026-04-23 19:41 26.43943 50.73389 10043 ft 315 kts 41°
2026-04-23 19:41 26.45571 50.75088 10552 ft 330 kts 42°
2026-04-23 19:42 26.47313 50.76915 10760 ft 358 kts 42°
2026-04-23 19:42 26.49190 50.78896 10935 ft 384 kts 42°
2026-04-23 19:42 26.51181 50.81005 11321 ft 403 kts 42°
2026-04-23 19:42 26.53243 50.83197 11970 ft 414 kts 43°
2026-04-23 19:43 26.55343 50.85433 12806 ft 420 kts 43°
2026-04-23 19:43 26.57477 50.87707 13665 ft 427 kts 43°
2026-04-23 19:43 26.59637 50.90011 14442 ft 432 kts 42°
2026-04-23 19:43 26.61792 50.92309 15275 ft 435 kts 42°
2026-04-23 19:44 26.63988 50.94651 16143 ft 438 kts 41°
2026-04-23 19:44 26.66212 50.97024 16950 ft 443 kts 41°
2026-04-23 19:44 26.68450 50.99414 17732 ft 448 kts 41°
2026-04-23 19:44 26.70716 51.01834 18442 ft 453 kts 41°
2026-04-23 19:45 26.72993 51.04287 19090 ft 454 kts 43°
2026-04-23 19:45 26.74853 51.07179 19572 ft 467 kts 63°
2026-04-23 19:45 26.75802 51.10679 20168 ft 475 kts 82°
2026-04-23 19:45 26.75857 51.14369 20865 ft 477 kts 98°
2026-04-23 19:46 26.75048 51.17885 21478 ft 474 kts 111°
2026-04-23 19:46 26.73888 51.21359 21957 ft 481 kts 113°
2026-04-23 19:46 26.72674 51.24878 22487 ft 487 kts 113°
2026-04-23 19:46 26.71467 51.28430 23098 ft 491 kts 112°
2026-04-23 19:47 26.70676 51.30811 23485 ft 494 kts 112°
2026-04-23 19:47 26.69100 51.35667 24131 ft 500 kts 111°
2026-04-23 19:47 26.67922 51.39344 24614 ft 504 kts 111°
2026-04-23 19:47 26.66754 51.42988 24944 ft 507 kts 111°
2026-04-23 19:48 26.65556 51.46712 24896 ft 510 kts 111°
2026-04-23 19:48 26.64353 51.50453 24902 ft 509 kts 111°
2026-04-23 19:48 26.63159 51.54171 24901 ft 508 kts 111°
2026-04-23 19:48 26.61963 51.57890 24899 ft 508 kts 111°
2026-04-23 19:49 26.60767 51.61606 24903 ft 508 kts 111°
2026-04-23 19:49 26.59570 51.65321 24902 ft 509 kts 111°
2026-04-23 19:49 26.58370 51.69042 24901 ft 509 kts 111°
2026-04-23 19:49 26.57170 51.72751 24901 ft 509 kts 111°
2026-04-23 19:50 26.55960 51.76462 24902 ft 509 kts 111°
2026-04-23 19:50 26.54772 51.80135 24902 ft 509 kts 111°
2026-04-23 19:50 26.53573 51.83862 24902 ft 509 kts 111°
2026-04-23 19:50 26.52375 51.87582 24901 ft 509 kts 111°
2026-04-23 19:51 26.51158 51.91294 24899 ft 508 kts 112°
2026-04-23 19:51 26.49927 51.94983 24900 ft 508 kts 112°
2026-04-23 19:51 26.48690 51.98671 24897 ft 508 kts 112°
2026-04-23 19:51 26.47449 52.02374 24896 ft 508 kts 112°
2026-04-23 19:52 26.46632 52.04816 24894 ft 507 kts 112°
2026-04-23 19:52 26.45001 52.09703 24898 ft 507 kts 112°
2026-04-23 19:52 26.43773 52.13380 24893 ft 507 kts 112°
2026-04-23 19:52 26.42535 52.17076 24893 ft 507 kts 112°
2026-04-23 19:53 26.41299 52.20760 24903 ft 507 kts 112°
2026-04-23 19:53 26.40062 52.24441 24891 ft 507 kts 112°
2026-04-23 19:53 26.38825 52.28122 24892 ft 507 kts 112°
2026-04-23 19:53 26.37592 52.31786 24891 ft 507 kts 112°
2026-04-23 19:54 26.36353 52.35470 24895 ft 507 kts 112°
2026-04-23 19:54 26.35127 52.39102 24895 ft 507 kts 112°
2026-04-23 19:54 26.33810 52.42737 24896 ft 506 kts 114°
2026-04-23 19:54 26.32418 52.46331 24896 ft 505 kts 115°
2026-04-23 19:55 26.31002 52.49921 24883 ft 505 kts 115°
2026-04-23 19:55 26.29596 52.53503 24874 ft 505 kts 115°
2026-04-23 19:55 26.28200 52.57103 24885 ft 505 kts 115°
2026-04-23 19:55 26.26819 52.60701 24877 ft 504 kts 115°
2026-04-23 19:56 26.25450 52.64280 24884 ft 504 kts 115°
2026-04-23 19:56 26.24070 52.67876 24878 ft 503 kts 115°
2026-04-23 19:56 26.22696 52.71458 24883 ft 503 kts 115°
2026-04-23 19:56 26.21345 52.74978 24877 ft 502 kts 115°
2026-04-23 19:57 26.19975 52.78551 24872 ft 502 kts 115°
2026-04-23 19:57 26.18603 52.82127 24878 ft 502 kts 115°
2026-04-23 19:57 26.17696 52.84489 24873 ft 501 kts 115°
2026-04-23 19:57 26.15864 52.89257 24872 ft 501 kts 115°
2026-04-23 19:58 26.14490 52.92826 24873 ft 501 kts 115°
2026-04-23 19:58 26.13120 52.96385 24869 ft 501 kts 115°
2026-04-23 19:58 26.11742 52.99960 24870 ft 501 kts 115°
2026-04-23 19:58 26.10388 53.03469 24869 ft 500 kts 115°
2026-04-23 19:59 26.09037 53.07039 24852 ft 501 kts 114°
2026-04-23 19:59 26.07719 53.10621 24856 ft 501 kts 114°
2026-04-23 19:59 26.06417 53.14205 24859 ft 501 kts 113°
2026-04-23 19:59 26.05114 53.17792 24855 ft 501 kts 113°
2026-04-23 20:00 26.03803 53.21387 24856 ft 501 kts 114°
2026-04-23 20:00 26.02490 53.24971 24848 ft 501 kts 114°
2026-04-23 20:00 26.01168 53.28564 24851 ft 501 kts 114°
2026-04-23 20:00 25.99845 53.32153 24851 ft 502 kts 114°
2026-04-23 20:01 25.98523 53.35734 24845 ft 502 kts 114°
2026-04-23 20:01 25.97218 53.39270 24852 ft 502 kts 114°
2026-04-23 20:01 25.95892 53.42859 24853 ft 502 kts 114°
2026-04-23 20:01 25.94567 53.46445 24848 ft 502 kts 114°
2026-04-23 20:02 25.93233 53.50051 24852 ft 502 kts 113°
2026-04-23 20:02 25.91953 53.53662 24847 ft 503 kts 112°
2026-04-23 20:02 25.90716 53.57289 24845 ft 503 kts 112°
2026-04-23 20:02 25.89491 53.60921 24844 ft 502 kts 112°
2026-04-23 20:03 25.88274 53.64505 24843 ft 502 kts 112°
2026-04-23 20:03 25.87033 53.68122 24840 ft 502 kts 112°
2026-04-23 20:03 25.85784 53.71742 24838 ft 501 kts 112°
2026-04-23 20:03 25.84531 53.75348 24843 ft 501 kts 112°
2026-04-23 20:04 25.83275 53.78948 24839 ft 500 kts 112°
2026-04-23 20:04 25.82015 53.82552 24836 ft 500 kts 112°
2026-04-23 20:04 25.80756 53.86154 24837 ft 500 kts 112°
2026-04-23 20:04 25.79501 53.89744 24842 ft 499 kts 112°
2026-04-23 20:05 25.78667 53.92132 24840 ft 499 kts 112°
2026-04-23 20:05 25.77009 53.96875 24836 ft 496 kts 112°
2026-04-23 20:05 25.75760 54.00442 24486 ft 492 kts 112°
2026-04-23 20:05 25.74574 54.03957 24071 ft 484 kts 110°
2026-04-23 20:06 25.73486 54.07472 23612 ft 478 kts 109°
2026-04-23 20:06 25.72444 54.10955 23024 ft 474 kts 109°
2026-04-23 20:06 25.71408 54.14421 22368 ft 471 kts 109°
2026-04-23 20:06 25.70369 54.17851 21790 ft 467 kts 110°
2026-04-23 20:07 25.69339 54.21209 21213 ft 463 kts 110°
2026-04-23 20:07 25.68302 54.24563 20666 ft 459 kts 110°
2026-04-23 20:07 25.67265 54.27908 20124 ft 456 kts 110°
2026-04-23 20:07 25.66241 54.31208 19591 ft 452 kts 110°
2026-04-23 20:08 25.65223 54.34493 19082 ft 449 kts 110°
2026-04-23 20:08 25.64219 54.37761 18557 ft 446 kts 110°
2026-04-23 20:08 25.63225 54.41012 18050 ft 443 kts 110°
2026-04-23 20:08 25.62242 54.44231 17496 ft 439 kts 110°
2026-04-23 20:09 25.61267 54.47417 16990 ft 435 kts 110°
2026-04-23 20:09 25.60299 54.50575 16483 ft 430 kts 110°
2026-04-23 20:09 25.59341 54.53692 15995 ft 426 kts 110°
2026-04-23 20:09 25.58564 54.56795 15464 ft 423 kts 102°
2026-04-23 20:10 25.58297 54.58968 15105 ft 422 kts 96°
2026-04-23 20:10 25.58293 54.63243 14432 ft 418 kts 85°
2026-04-23 20:10 25.58691 54.66409 14155 ft 408 kts 82°
2026-04-23 20:10 25.59115 54.69452 14064 ft 393 kts 82°
2026-04-23 20:11 25.59517 54.72392 13978 ft 378 kts 82°
2026-04-23 20:11 25.59891 54.75226 13881 ft 362 kts 83°
2026-04-23 20:11 25.60231 54.77876 13689 ft 335 kts 83°
2026-04-23 20:11 25.60541 54.80321 13311 ft 316 kts 83°
2026-04-23 20:12 25.60841 54.82713 12738 ft 305 kts 84°
2026-04-23 20:12 25.61127 54.85046 12218 ft 305 kts 86°
2026-04-23 20:12 25.60962 54.87296 11913 ft 291 kts 113°
2026-04-23 20:12 25.60205 54.89312 11820 ft 283 kts 117°
2026-04-23 20:13 25.59396 54.91325 11708 ft 290 kts 117°
2026-04-23 20:13 25.58569 54.93386 11606 ft 293 kts 117°
2026-04-23 20:13 25.57744 54.95458 11351 ft 294 kts 117°
2026-04-23 20:13 25.56932 54.97514 11085 ft 289 kts 117°
2026-04-23 20:14 25.56130 54.99546 10759 ft 286 kts 117°
2026-04-23 20:14 25.55337 55.01558 10403 ft 284 kts 117°
2026-04-23 20:14 25.54543 55.03552 10069 ft 282 kts 119°
2026-04-23 20:14 25.53625 55.05458 9723 ft 279 kts 123°
2026-04-23 20:15 25.52649 55.07301 9355 ft 277 kts 124°
2026-04-23 20:15 25.51685 55.09110 8967 ft 276 kts 123°
2026-04-23 20:15 25.50718 55.10937 8599 ft 275 kts 123°
2026-04-23 20:15 25.49763 55.12759 8231 ft 273 kts 122°
2026-04-23 20:16 25.48932 55.14353 7992 ft 272 kts 122°
2026-04-23 20:16 25.47987 55.16168 7997 ft 273 kts 122°
2026-04-23 20:16 25.47034 55.18001 7984 ft 274 kts 122°
2026-04-23 20:16 25.46082 55.19816 7975 ft 271 kts 124°
2026-04-23 20:17 25.45347 55.20925 7983 ft 269 kts 133°
2026-04-23 20:17 25.44099 55.22457 7982 ft 265 kts 135°
2026-04-23 20:17 25.42470 55.24373 7963 ft 250 kts 135°
2026-04-23 20:17 25.41301 55.25764 7984 ft 246 kts 135°
2026-04-23 20:18 25.40146 55.27158 7988 ft 246 kts 135°
2026-04-23 20:18 25.38993 55.28563 7995 ft 247 kts 134°
2026-04-23 20:18 25.38230 55.29496 8000 ft 247 kts 134°
2026-04-23 20:18 25.37079 55.30905 8001 ft 247 kts 134°
2026-04-23 20:19 25.35924 55.32314 7999 ft 246 kts 137°
2026-04-23 20:19 25.34580 55.33430 8012 ft 240 kts 153°
2026-04-23 20:19 25.33105 55.34291 8000 ft 241 kts 155°
2026-04-23 20:19 25.31603 55.35127 8007 ft 242 kts 156°
2026-04-23 20:20 25.30100 55.35970 8013 ft 243 kts 155°
2026-04-23 20:20 25.28594 55.36827 7936 ft 242 kts 155°
2026-04-23 20:20 25.27101 55.37684 7717 ft 242 kts 155°
2026-04-23 20:20 25.25609 55.38548 7495 ft 243 kts 154°
2026-04-23 20:21 25.24111 55.39420 7287 ft 243 kts 154°
2026-04-23 20:21 25.22634 55.40283 7093 ft 242 kts 154°
2026-04-23 20:21 25.21147 55.41152 6899 ft 242 kts 154°
2026-04-23 20:21 25.19661 55.42021 6702 ft 242 kts 154°
2026-04-23 20:22 25.18173 55.42891 6510 ft 242 kts 154°
2026-04-23 20:22 25.16686 55.43761 6321 ft 242 kts 154°
2026-04-23 20:22 25.15206 55.44626 6079 ft 238 kts 154°
2026-04-23 20:22 25.13743 55.45481 5678 ft 240 kts 154°
2026-04-23 20:23 25.12266 55.46342 5462 ft 240 kts 153°
2026-04-23 20:23 25.10951 55.47388 5159 ft 238 kts 128°
2026-04-23 20:23 25.10078 55.48931 4867 ft 238 kts 121°
2026-04-23 20:23 25.09222 55.50492 4669 ft 236 kts 121°
2026-04-23 20:24 25.08366 55.52032 4461 ft 235 kts 121°
2026-04-23 20:24 25.07592 55.53607 4175 ft 233 kts 105°
2026-04-23 20:24 25.07555 55.55349 3940 ft 224 kts 71°
2026-04-23 20:24 25.08349 55.56751 3662 ft 214 kts 41°
2026-04-23 20:25 25.09650 55.57493 3264 ft 214 kts
2026-04-23 20:25 25.11081 55.57271 3061 ft 208 kts 338°
2026-04-23 20:25 25.12357 55.56574 3018 ft 207 kts 333°
2026-04-23 20:25 25.13616 55.55817 3007 ft 206 kts 332°
2026-04-23 20:26 25.14787 55.54943 2984 ft 203 kts 313°
2026-04-23 20:26 25.15644 55.53710 2924 ft 204 kts 306°
2026-04-23 20:26 25.16411 55.52444 2648 ft 192 kts 304°
2026-04-23 20:26 25.17085 55.51244 2412 ft 177 kts 304°
2026-04-23 20:27 25.17727 55.50086 2197 ft 177 kts 304°
2026-04-23 20:27 25.18368 55.48925 1979 ft 176 kts 304°
2026-04-23 20:27 25.19003 55.47778 1761 ft 176 kts 304°
2026-04-23 20:27 25.19641 55.46624 1533 ft 176 kts 304°
2026-04-23 20:28 25.20261 55.45504 1320 ft 165 kts 304°
2026-04-23 20:28 25.20834 55.44466 1091 ft 158 kts 304°
2026-04-23 20:28 25.21406 55.43436 921 ft 156 kts 303°
2026-04-23 20:28 25.21966 55.42422 725 ft 153 kts 302°
2026-04-23 20:29 25.22512 55.41428 504 ft 150 kts 302°
2026-04-23 20:29 25.23052 55.40450 317 ft 147 kts 303°
2026-04-23 20:29 25.23587 55.39495 117 ft 144 kts 304°
2026-04-23 20:29 25.24076 55.38621 59 ft 116 kts 301°
2026-04-23 20:30 25.24417 55.38008 49 ft 71 kts 301°
2026-04-23 20:30 25.24620 55.37466 39 ft 14 kts 271°
2026-04-23 20:30 25.24621 55.37439 39 ft 1 kts 271°
2026-04-23 20:31 25.24621 55.37417 38 ft 6 kts 271°
2026-04-23 20:31 25.24623 55.37344 37 ft 11 kts 271°
2026-04-23 20:31 25.24630 55.37256 35 ft 12 kts 294°
2026-04-23 20:31 25.24681 55.37171 33 ft 14 kts 303°
2026-04-23 20:32 25.24735 55.37073 31 ft 16 kts 301°
2026-04-23 20:32 25.24795 55.36967 29 ft 17 kts 302°
2026-04-23 20:32 25.24850 55.36850 28 ft 18 kts 289°
2026-04-23 20:32 25.24879 55.36716 27 ft 17 kts 285°
2026-04-23 20:33 25.24928 55.36605 30 ft 16 kts 301°
2026-04-23 20:33 25.24986 55.36499 31 ft 16 kts 301°
2026-04-23 20:33 25.25045 55.36393 31 ft 16 kts 301°
2026-04-23 20:33 25.25103 55.36287 27 ft 16 kts 301°
2026-04-23 20:34 25.25162 55.36181 31 ft 16 kts 301°
2026-04-23 20:34 25.25221 55.36075 31 ft 16 kts 301°
2026-04-23 20:34 25.25278 55.35971 30 ft 16 kts 301°
2026-04-23 20:34 25.25337 55.35866 29 ft 16 kts 301°
2026-04-23 20:35 25.25395 55.35761 27 ft 16 kts 301°
2026-04-23 20:35 25.25453 55.35656 28 ft 16 kts 301°
2026-04-23 20:35 25.25511 55.35552 30 ft 16 kts 302°
2026-04-23 20:35 25.25570 55.35447 29 ft 16 kts 301°
2026-04-23 20:36 25.25628 55.35342 30 ft 16 kts 301°
2026-04-23 20:36 25.25685 55.35238 27 ft 16 kts 301°
2026-04-23 20:36 25.25736 55.35145 28 ft 11 kts 301°
2026-04-23 20:36 25.25769 55.35082 29 ft 6 kts 299°
2026-04-23 20:37 25.25799 55.35055 30 ft 6 kts 342°
2026-04-23 20:37 25.25850 55.35070 28 ft 9 kts 30°
2026-04-23 20:37 25.25917 55.35113 29 ft 12 kts 31°
2026-04-23 20:37 25.25987 55.35159 30 ft 12 kts 32°
2026-04-23 20:38 25.26059 55.35209 30 ft 13 kts 32°
2026-04-23 20:38 25.26133 55.35258 29 ft 10 kts 31°
2026-04-23 20:38 25.26170 55.35284 28 ft 4 kts 31°
2026-04-23 20:38 25.26202 55.35305 30 ft 9 kts 31°
2026-04-23 20:39 25.26267 55.35349 29 ft 12 kts 31°
2026-04-23 20:39 25.26348 55.35404 29 ft 14 kts 31°
2026-04-23 20:39 25.26421 55.35453 29 ft 12 kts 31°
2026-04-23 20:39 25.26490 55.35490 27 ft 9 kts
2026-04-23 20:40 25.26531 55.35464 28 ft 7 kts 312°
2026-04-23 20:40 25.26572 55.35394 29 ft 14 kts 301°
2026-04-23 20:40 25.26622 55.35303 28 ft 14 kts 301°
2026-04-23 20:40 25.26671 55.35215 27 ft 10 kts 301°
2026-04-23 20:41 25.26695 55.35176 29 ft 2 kts 315°
2026-04-23 20:41 25.26707 55.35173 28 ft 2 kts 354°
2026-04-23 20:41 25.26728 55.35178 29 ft 6 kts 16°
2026-04-23 20:41 25.26766 55.35201 29 ft 4 kts 30°
2026-04-23 20:42 25.26779 55.35209 27 ft 0 kts 30°